Location: São Paulo
(23.5507°S, 46.6334°W)
Time: 17:36:44
(UTC-03:00)

Vanguard 3 - All Passes

Search period start: 17 February 2026 00:00
Search period end: 27 February 2026 00:00
Orbit: 507 x 3205 km, 33.3° (Epoch: 17 February)

Date Brightness Start Highest point End Pass type
(mag) Time Alt. Az. Time Alt. Az. Time Alt. Az.
17 Feb - 02:25:22 10° NW 02:32:15 56° NE 02:44:34 10° ESE visible
17 Feb - 04:35:43 10° W 04:45:31 68° SSW 05:02:30 10° ESE visible
17 Feb - 06:48:28 10° WSW 07:02:14 60° S 07:21:38 10° E daylight
17 Feb - 09:02:21 10° WSW 09:20:15 79° SSE 09:39:24 10° ENE daylight
17 Feb - 11:17:47 10° WSW 11:36:47 59° NW 11:52:40 10° NE daylight
17 Feb - 13:38:52 10° W 13:50:25 20° NW 13:59:53 10° N daylight
18 Feb - 01:06:04 10° N 01:11:00 25° NE 01:18:22 10° E visible
18 Feb - 03:14:18 10° WNW 03:22:02 89° SSW 03:36:20 10° ESE visible
18 Feb - 05:25:54 10° W 05:36:55 59° S 05:54:50 10° ESE visible
18 Feb - 07:39:01 10° WSW 07:54:19 66° SSE 08:14:05 10° E daylight
18 Feb - 09:53:07 10° WSW 10:11:47 82° NNW 10:30:07 10° NE daylight
18 Feb - 12:10:04 10° WSW 12:27:04 38° NW 12:41:00 10° NNE daylight
19 Feb - 01:53:47 10° NW 01:59:52 55° NE 02:10:38 10° ESE visible
19 Feb - 04:03:57 10° W 04:12:38 66° SSW 04:28:11 10° ESE visible
19 Feb - 06:16:16 10° WSW 06:28:43 58° S 06:47:32 10° E daylight
19 Feb - 08:29:28 10° WSW 08:46:11 79° SSE 09:05:56 10° ENE daylight
19 Feb - 10:44:13 10° WSW 11:02:46 59° NW 11:19:46 10° NE daylight
19 Feb - 13:04:40 10° W 13:17:00 21° NW 13:27:27 10° N daylight
20 Feb - 00:34:37 10° N 00:38:48 22° NE 00:44:49 10° E visible
20 Feb - 02:42:42 10° WNW 02:49:32 86° SSW 03:02:13 10° ESE visible
20 Feb - 04:54:02 10° W 05:03:52 56° S 05:20:30 10° ESE visible
20 Feb - 07:06:35 10° WSW 07:20:33 66° SSE 07:40:11 10° E daylight
20 Feb - 09:20:00 10° WSW 09:37:39 81° NNW 09:56:49 10° NE daylight
20 Feb - 11:36:19 10° WSW 11:53:14 38° NW 12:08:11 10° NNE daylight
21 Feb - 01:22:16 10° NW 01:27:37 53° NE 01:36:55 10° ESE visible
21 Feb - 03:32:19 10° W 03:39:59 62° SSW 03:53:55 10° ESE visible
21 Feb - 05:44:13 10° WSW 05:55:23 57° S 06:13:16 10° E daylight
21 Feb - 07:56:49 10° WSW 08:12:12 80° SSE 08:32:12 10° ENE daylight
21 Feb - 10:10:55 10° WSW 10:28:41 59° NW 10:46:35 10° NE daylight
21 Feb - 12:30:41 10° W 12:43:26 22° NW 12:54:46 10° N daylight
22 Feb - 00:03:09 10° N 00:06:43 20° NE 00:11:31 10° E night (unlit)
22 Feb - 02:11:10 10° WNW 02:17:12 84° SSW 02:28:17 10° ESE visible
22 Feb - 04:22:17 10° WSW 04:31:00 54° S 04:46:09 10° ESE visible
22 Feb - 06:34:19 10° WSW 06:46:58 65° SSE 07:06:04 10° E daylight
22 Feb - 08:47:07 10° WSW 09:03:34 80° NNW 09:23:16 10° NE daylight
22 Feb - 11:02:47 10° W 11:19:19 38° NW 11:35:07 10° NNE daylight
23 Feb - 00:50:45 10° NW 00:55:30 52° NE 01:03:27 10° ESE visible
23 Feb - 03:00:45 10° W 03:07:31 58° SSW 03:19:47 10° ESE visible
23 Feb - 05:12:19 10° WSW 05:22:17 55° S 05:38:56 10° E visible
23 Feb - 07:24:21 10° WSW 07:38:23 80° SSE 07:58:15 10° ENE daylight
23 Feb - 09:37:50 10° WSW 09:54:37 58° NW 10:13:10 10° NE daylight
23 Feb - 11:56:56 10° W 12:09:47 22° NW 12:21:48 10° N daylight
23 Feb - 23:31:41 10° N 23:34:41 18° NE 23:38:30 10° E night (unlit)
24 Feb - 01:39:40 10° WNW 01:45:01 80° SSW 01:54:34 10° ESE visible
24 Feb - 03:50:38 10° WSW 03:58:20 50° S 04:11:53 10° ESE visible
24 Feb - 06:02:13 10° WSW 06:13:34 64° SSE 06:31:48 10° E daylight
24 Feb - 08:14:27 10° WSW 08:29:35 79° NNW 08:49:28 10° NE daylight
24 Feb - 10:29:31 10° W 10:45:23 38° NW 11:01:48 10° NNE daylight
25 Feb - 00:19:14 10° NW 00:23:30 50° NE 00:30:15 10° ESE visible
25 Feb - 02:29:14 10° W 02:35:13 54° S 02:45:50 10° ESE visible
25 Feb - 04:40:32 10° WSW 04:49:22 52° S 05:04:35 10° E visible
25 Feb - 06:52:03 10° WSW 07:04:44 80° SSE 07:24:07 10° ENE daylight
25 Feb - 09:04:59 10° WSW 09:20:37 57° NW 09:39:29 10° NE daylight
25 Feb - 11:23:27 10° W 11:36:05 22° NW 11:48:33 10° N daylight
25 Feb - 23:00:08 10° N 23:02:41 16° NE 23:05:45 10° E night (unlit)
26 Feb - 01:08:11 10° WNW 01:12:57 76° SSW 01:21:06 10° ESE visible
26 Feb - 03:19:04 10° WSW 03:25:51 47° S 03:37:43 10° ESE visible
26 Feb - 05:30:16 10° WSW 05:40:23 62° SSE 05:57:27 10° E visible
26 Feb - 07:42:00 10° WSW 07:55:46 78° NNW 08:15:26 10° NE daylight
26 Feb - 09:56:30 10° W 10:11:29 37° NW 10:28:12 10° NNE daylight
26 Feb - 23:47:41 10° NW 23:51:34 49° NNE 23:57:18 10° ESE night (unlit)
